GFSNGP_prec_precacc_273.txt.gz
Total_Precipitation_Accumulation
0.14 0.17 0.66 0.51 0.18 0.15 0.29 0.22 0.50 0.76 0.69 1.02 1.77 1.97 1.82 1.76 1.25 1.11 1.00 0.92 0.99 1.52 1.16 1.05 1.16 1.10 1.04 1.27 1.39 1.66 1.57 1.42 1.38 1.50 1.57 1.14 1.04 1.10 1.51 1.54 1.59 1.80 1.84 1.88
0.17 0.09 0.42 0.45 0.15 0.11 0.14 0.17 0.33 0.49 0.45 1.04 0.82 0.56 0.53 0.64 0.96 0.84 0.96 0.85 0.70 0.97 1.45 0.86 0.70 0.78 0.80 1.02 1.23 1.17 1.23 1.17 1.08 0.95 0.96 0.95 0.94 0.79 0.84 1.08 1.22 1.39 1.64 2.06
1.02 0.20 0.83 1.38 0.77 0.50 0.36 0.45 0.31 0.43 0.62 0.80 0.43 0.19 0.13 0.11 0.20 0.39 0.47 0.56 0.47 0.49 1.07 1.08 0.81 0.79 0.71 0.90 1.05 0.95 1.04 1.08 0.89 0.73 0.69 0.56 0.51 0.47 0.49 0.70 0.94 1.20 1.40 1.44
1.77 1.22 2.76 1.33 0.65 0.68 0.89 0.67 0.78 0.73 0.76 0.54 0.29 0.22 0.16 0.18 0.15 0.14 0.18 0.29 0.49 0.58 0.81 1.06 0.75 0.63 0.62 0.69 0.93 0.90 0.83 0.86 0.87 0.73 0.52 0.46 0.43 0.48 0.53 0.58 0.59 0.53 0.56 0.61
3.02 2.38 1.50 0.46 0.25 0.30 0.52 0.46 0.35 0.52 0.51 0.27 0.16 0.20 0.21 0.16 0.21 0.21 0.26 0.36 0.44 0.44 0.48 1.05 1.03 0.88 0.92 0.82 0.92 1.02 0.87 0.85 0.80 0.73 0.55 0.59 0.69 0.83 0.79 0.68 0.60 0.52 0.45 0.44
3.69 3.12 1.51 0.54 0.32 0.14 0.38 0.78 0.43 0.36 0.36 0.26 0.21 0.40 0.65 0.56 0.49 0.37 0.41 0.26 0.19 0.16 0.32 0.76 1.25 1.17 1.49 1.29 1.19 1.10 0.92 0.86 0.79 0.75 0.78 0.85 0.83 0.85 0.90 0.86 0.92 1.06 1.01 0.81
2.15 2.99 1.57 0.20 0.23 0.34 1.28 1.39 0.73 0.49 0.51 0.47 0.57 0.62 0.65 0.52 0.31 0.28 0.24 0.27 0.24 0.22 0.33 0.51 1.05 1.40 1.60 1.84 1.60 1.42 1.27 1.08 1.23 1.10 0.91 0.77 0.74 0.69 0.96 1.04 1.08 1.21 1.41 1.44
1.62 2.35 1.78 0.24 0.33 0.98 1.65 0.97 0.84 0.74 0.51 0.48 0.69 0.77 0.60 0.54 0.41 0.43 0.48 0.50 0.34 0.25 0.31 0.49 0.64 1.12 1.44 1.73 1.79 1.71 1.84 1.75 1.53 1.83 1.66 1.37 1.09 0.92 0.82 1.20 1.65 1.74 1.68 1.67
1.28 1.23 0.68 0.50 0.57 0.44 0.26 0.20 0.20 0.49 0.66 0.67 0.52 0.65 0.86 1.34 0.91 0.58 0.68 0.70 0.57 0.46 0.41 0.45 0.59 0.86 1.20 1.40 1.37 1.51 1.68 2.03 2.10 2.01 2.12 1.83 1.61 1.43 1.35 1.22 1.27 1.51 1.75 1.92
1.56 0.91 0.40 0.40 0.39 0.22 0.25 0.32 0.24 0.32 0.35 0.50 0.49 0.38 0.47 0.57 0.59 0.73 1.06 0.98 0.76 0.65 0.69 0.77 0.81 1.01 1.44 1.56 1.50 1.50 1.52 1.45 1.49 1.69 1.81 1.91 2.03 2.01 1.90 1.94 1.93 2.08 2.26 2.51
1.81 1.18 0.72 0.48 0.48 0.57 0.45 0.41 0.39 0.36 0.38 0.39 0.51 0.40 0.46 0.56 0.39 0.42 0.63 0.75 0.97 0.98 1.09 1.19 1.40 1.60 1.71 1.46 1.10 0.93 0.78 0.67 0.67 0.87 1.13 1.43 1.89 2.48 2.55 2.82 2.83 2.73 2.84 2.79
2.24 1.64 1.53 1.15 0.85 0.80 0.78 0.42 0.20 0.22 0.34 0.61 0.61 0.48 0.29 0.29 0.26 0.29 0.45 0.68 0.86 1.01 1.12 1.25 1.23 1.24 1.12 1.11 0.91 0.57 0.50 0.49 0.59 0.58 0.76 1.05 1.44 2.06 2.86 3.26 3.28 3.25 3.30 3.16
1.25 1.56 1.55 1.46 0.95 0.72 0.59 0.63 0.53 0.40 0.41 0.65 0.70 0.34 0.18 0.20 0.31 0.41 0.41 0.52 0.73 1.03 1.15 1.38 1.57 1.70 1.70 1.38 1.43 1.37 0.86 0.80 0.92 1.06 1.16 1.38 1.61 1.85 2.43 2.97 3.11 3.27 3.28 3.24
0.79 1.02 1.09 1.04 0.75 0.38 0.41 0.49 0.53 0.50 0.40 0.49 0.69 0.65 0.53 0.46 0.46 0.46 0.57 0.60 0.63 0.76 1.07 1.16 0.99 1.09 1.29 1.34 1.47 1.68 1.82 1.75 1.73 1.94 2.04 2.07 2.07 2.16 2.18 2.18 2.11 2.12 2.11 1.96
0.48 0.57 0.79 0.78 1.03 0.74 0.50 0.64 0.78 0.54 0.36 0.37 0.47 0.76 0.76 0.85 0.80 0.90 1.03 0.97 0.82 0.75 0.80 0.79 0.75 0.84 0.81 0.80 0.88 1.06 1.30 1.50 1.41 1.37 1.28 1.22 1.15 1.18 1.18 1.19 1.17 1.19 1.11 1.03
0.71 0.63 0.69 0.84 0.97 1.01 0.69 0.63 0.70 0.74 0.57 0.40 0.40 0.61 0.71 0.75 0.84 0.94 0.92 0.75 0.63 0.72 0.65 0.64 0.77 0.97 0.95 0.92 0.86 0.91 0.97 1.10 1.02 0.99 1.06 0.97 0.82 0.73 0.70 0.68 0.71 0.66 0.63 0.70
1.24 1.16 0.89 0.82 0.69 0.79 0.65 0.48 0.53 0.65 0.54 0.47 0.62 0.59 0.74 0.94 0.85 0.72 0.76 0.70 0.60 0.65 0.76 0.84 1.20 1.22 1.09 1.04 1.00 1.03 0.95 0.91 0.83 0.69 0.65 0.62 0.59 0.57 0.55 0.62 0.63 0.59 0.52 0.54
1.52 1.68 1.13 0.77 0.58 0.66 0.63 0.55 0.60 0.75 0.83 0.79 0.79 0.93 1.08 1.01 0.98 1.04 0.97 0.73 0.70 0.83 1.00 1.15 1.09 1.00 0.92 0.91 0.78 0.72 0.65 0.60 0.54 0.53 0.51 0.48 0.43 0.39 0.44 0.47 0.47 0.50 0.52 0.64
1.62 1.89 1.43 0.95 0.79 0.75 0.74 0.84 0.84 0.92 1.08 1.16 1.20 1.45 1.46 1.50 1.49 1.54 1.36 1.13 1.11 1.04 1.35 1.09 0.88 0.68 0.62 0.59 0.43 0.37 0.40 0.41 0.39 0.39 0.39 0.37 0.39 0.38 0.45 0.47 0.49 0.52 0.52 0.55
1.36 1.70 1.50 1.52 1.57 1.34 1.52 1.66 1.57 1.68 1.82 1.53 1.44 1.57 1.68 1.82 1.68 1.52 1.25 1.14 1.14 1.10 0.91 0.67 0.48 0.37 0.31 0.27 0.23 0.24 0.28 0.30 0.32 0.31 0.34 0.35 0.36 0.40 0.44 0.51 0.55 0.55 0.53 0.56
1.48 1.51 1.50 1.47 1.89 2.02 1.95 1.98 1.61 1.72 1.99 1.59 1.34 1.48 1.38 1.43 1.25 1.10 0.89 0.81 0.97 0.67 0.46 0.34 0.25 0.19 0.13 0.14 0.13 0.18 0.25 0.30 0.33 0.37 0.40 0.46 0.49 0.49 0.47 0.40 0.42 0.45 0.47 0.49
1.12 1.11 1.21 1.05 0.91 1.36 1.51 1.33 0.98 1.06 1.06 1.03 0.91 0.89 0.80 0.89 0.81 0.68 0.62 0.56 0.54 0.33 0.23 0.17 0.13 0.11 0.10 0.11 0.15 0.22 0.26 0.32 0.35 0.40 0.47 0.48 0.49 0.45 0.42 0.37 0.39 0.39 0.39 0.41
0.87 0.73 0.74 0.65 0.50 0.71 0.79 0.68 0.67 0.53 0.56 0.59 0.60 0.60 0.53 0.54 0.52 0.45 0.47 0.37 0.17 0.13 0.10 0.14 0.16 0.16 0.15 0.19 0.24 0.30 0.34 0.40 0.45 0.48 0.50 0.51 0.52 0.49 0.45 0.42 0.41 0.44 0.50 0.55
0.61 0.58 0.63 0.59 0.46 0.36 0.46 0.64 0.49 0.47 0.43 0.47 0.49 0.50 0.44 0.42 0.40 0.22 0.18 0.16 0.15 0.14 0.16 0.23 0.23 0.20 0.22 0.35 0.39 0.41 0.43 0.48 0.50 0.54 0.54 0.54 0.58 0.59 0.62 0.62 0.59 0.63 0.67 0.65
0.67 0.67 0.66 0.62 0.51 0.58 0.54 0.55 0.42 0.43 0.39 0.39 0.36 0.30 0.25 0.23 0.35 0.31 0.20 0.22 0.20 0.24 0.32 0.34 0.31 0.31 0.39 0.46 0.51 0.52 0.54 0.55 0.54 0.57 0.59 0.64 0.66 0.68 0.68 0.66 0.63 0.62 0.63 0.63
0.72 0.66 0.67 0.63 0.58 0.54 0.50 0.45 0.44 0.44 0.35 0.33 0.39 0.35 0.34 0.30 0.29 0.27 0.28 0.28 0.28 0.31 0.38 0.42 0.39 0.41 0.49 0.50 0.53 0.51 0.52 0.53 0.52 0.55 0.57 0.61 0.64 0.63 0.62 0.63 0.63 0.61 0.63 0.61
0.65 0.59 0.51 0.46 0.48 0.44 0.39 0.36 0.37 0.38 0.35 0.37 0.52 0.48 0.38 0.35 0.31 0.30 0.34 0.39 0.40 0.43 0.46 0.47 0.47 0.45 0.49 0.52 0.49 0.48 0.52 0.54 0.53 0.56 0.58 0.61 0.61 0.64 0.68 0.68 0.65 0.62 0.59 0.61

GFSNGP_prec_precacc_276.txt.gz
Total_Precipitation_Accumulation
0.14 0.17 0.66 0.51 0.18 0.15 0.29 0.22 0.50 0.76 0.69 1.02 1.77 1.97 1.82 1.76 1.25 1.11 1.00 0.92 0.99 1.52 1.16 1.05 1.16 1.10 1.04 1.27 1.40 1.67 1.59 1.44 1.45 1.66 1.72 1.23 1.07 1.13 1.55 1.57 1.62 1.82 1.85 1.90
0.17 0.09 0.42 0.45 0.15 0.11 0.14 0.17 0.33 0.49 0.45 1.04 0.82 0.56 0.53 0.64 0.96 0.84 0.96 0.85 0.70 0.97 1.45 0.86 0.70 0.78 0.80 1.03 1.24 1.19 1.28 1.23 1.23 1.11 1.12 1.13 1.08 0.89 0.96 1.21 1.31 1.42 1.65 2.06
1.02 0.20 0.83 1.38 0.77 0.50 0.36 0.45 0.31 0.43 0.62 0.80 0.43 0.19 0.13 0.11 0.20 0.39 0.47 0.56 0.47 0.49 1.07 1.08 0.81 0.79 0.72 0.90 1.06 1.00 1.12 1.19 1.04 0.92 0.89 0.89 0.78 0.68 0.62 0.78 0.98 1.25 1.45 1.48
1.77 1.22 2.77 1.33 0.65 0.68 0.89 0.67 0.78 0.73 0.76 0.54 0.29 0.22 0.16 0.18 0.15 0.14 0.18 0.29 0.49 0.58 0.81 1.06 0.75 0.63 0.62 0.70 0.96 0.95 0.89 0.94 0.95 0.82 0.74 0.72 0.57 0.54 0.54 0.59 0.61 0.54 0.57 0.62
3.02 2.38 1.50 0.46 0.25 0.30 0.52 0.46 0.35 0.52 0.51 0.27 0.16 0.20 0.21 0.16 0.21 0.21 0.26 0.36 0.44 0.44 0.48 1.05 1.03 0.88 0.92 0.83 0.94 1.06 0.93 0.93 0.91 0.81 0.66 0.72 0.79 0.86 0.83 0.76 0.67 0.55 0.45 0.45
3.70 3.13 1.51 0.54 0.32 0.14 0.39 0.79 0.43 0.36 0.36 0.26 0.21 0.41 0.65 0.56 0.49 0.37 0.41 0.26 0.19 0.16 0.32 0.76 1.25 1.17 1.49 1.29 1.22 1.15 0.98 0.94 0.95 0.90 0.96 0.98 0.97 0.99 1.04 0.96 0.95 1.08 1.01 0.81
2.16 3.01 1.58 0.20 0.23 0.34 1.29 1.39 0.73 0.49 0.51 0.47 0.57 0.62 0.65 0.52 0.31 0.28 0.24 0.27 0.24 0.22 0.33 0.51 1.05 1.40 1.60 1.84 1.62 1.49 1.34 1.16 1.33 1.20 1.02 0.89 0.87 0.81 1.02 1.07 1.09 1.21 1.41 1.44
1.62 2.36 1.79 0.24 0.34 0.98 1.66 0.97 0.84 0.74 0.51 0.48 0.69 0.77 0.60 0.54 0.41 0.43 0.48 0.50 0.34 0.25 0.31 0.49 0.64 1.12 1.44 1.77 1.86 1.80 1.94 1.86 1.66 1.96 1.80 1.50 1.22 1.02 0.88 1.22 1.66 1.74 1.68 1.67
1.28 1.23 0.68 0.50 0.57 0.45 0.26 0.21 0.21 0.49 0.66 0.67 0.52 0.65 0.86 1.34 0.91 0.58 0.68 0.70 0.57 0.46 0.41 0.45 0.60 0.87 1.23 1.48 1.45 1.62 1.80 2.16 2.22 2.08 2.16 1.87 1.66 1.47 1.37 1.22 1.27 1.51 1.75 1.92
1.56 0.91 0.40 0.40 0.39 0.22 0.25 0.33 0.25 0.33 0.35 0.50 0.49 0.38 0.47 0.57 0.59 0.73 1.07 0.98 0.76 0.65 0.69 0.78 0.82 1.04 1.50 1.64 1.60 1.61 1.63 1.53 1.52 1.70 1.84 1.96 2.05 2.02 1.91 1.94 1.93 2.08 2.26 2.51
1.82 1.18 0.75 0.50 0.49 0.58 0.48 0.45 0.44 0.40 0.42 0.40 0.51 0.41 0.46 0.56 0.39 0.42 0.63 0.75 0.97 0.98 1.09 1.21 1.44 1.66 1.78 1.55 1.19 1.01 0.82 0.69 0.69 0.90 1.17 1.46 1.91 2.49 2.55 2.82 2.83 2.73 2.84 2.79
2.32 1.69 1.70 1.23 0.86 0.82 0.85 0.50 0.25 0.29 0.41 0.63 0.62 0.48 0.29 0.29 0.27 0.29 0.45 0.68 0.86 1.01 1.13 1.29 1.28 1.30 1.21 1.19 0.94 0.59 0.52 0.51 0.61 0.61 0.78 1.06 1.44 2.06 2.86 3.26 3.28 3.25 3.30 3.17
1.40 1.67 1.59 1.47 0.95 0.72 0.65 0.71 0.58 0.49 0.51 0.70 0.72 0.36 0.19 0.21 0.31 0.41 0.41 0.52 0.74 1.04 1.18 1.43 1.62 1.77 1.76 1.41 1.46 1.39 0.89 0.83 0.94 1.08 1.16 1.38 1.61 1.85 2.43 2.97 3.11 3.27 3.28 3.24
0.81 1.06 1.13 1.05 0.78 0.40 0.45 0.53 0.56 0.55 0.45 0.52 0.70 0.70 0.55 0.46 0.47 0.47 0.59 0.61 0.65 0.79 1.11 1.21 1.05 1.13 1.31 1.36 1.50 1.72 1.85 1.77 1.74 1.95 2.04 2.07 2.07 2.16 2.18 2.18 2.11 2.12 2.11 1.96
0.48 0.57 0.81 0.80 1.06 0.75 0.52 0.65 0.80 0.57 0.39 0.45 0.53 0.80 0.77 0.86 0.81 0.93 1.06 1.00 0.85 0.79 0.85 0.83 0.78 0.86 0.83 0.82 0.89 1.07 1.30 1.50 1.41 1.37 1.28 1.22 1.15 1.18 1.18 1.19 1.17 1.19 1.11 1.03
0.71 0.63 0.69 0.84 0.98 1.01 0.69 0.63 0.72 0.80 0.68 0.50 0.44 0.63 0.74 0.77 0.86 0.97 0.96 0.79 0.66 0.76 0.68 0.66 0.79 0.99 0.96 0.93 0.87 0.91 0.97 1.10 1.02 0.99 1.06 0.97 0.82 0.73 0.70 0.68 0.71 0.66 0.63 0.70
1.25 1.17 0.90 0.83 0.70 0.80 0.66 0.49 0.55 0.68 0.56 0.49 0.64 0.61 0.75 0.95 0.87 0.74 0.81 0.77 0.65 0.69 0.78 0.87 1.22 1.24 1.10 1.05 1.00 1.03 0.95 0.91 0.83 0.69 0.65 0.62 0.59 0.57 0.55 0.62 0.63 0.59 0.52 0.54
1.54 1.72 1.16 0.78 0.58 0.66 0.64 0.57 0.62 0.76 0.86 0.81 0.82 0.95 1.11 1.03 1.02 1.09 1.04 0.77 0.73 0.86 1.04 1.18 1.10 1.01 0.92 0.91 0.78 0.72 0.65 0.60 0.54 0.53 0.51 0.48 0.43 0.39 0.44 0.47 0.47 0.50 0.52 0.64
1.62 1.90 1.44 0.95 0.80 0.76 0.75 0.87 0.88 0.96 1.13 1.21 1.24 1.49 1.51 1.56 1.55 1.62 1.41 1.16 1.13 1.06 1.37 1.09 0.88 0.68 0.62 0.59 0.43 0.37 0.40 0.41 0.39 0.39 0.39 0.37 0.39 0.38 0.45 0.47 0.49 0.52 0.52 0.55
1.36 1.71 1.50 1.53 1.59 1.36 1.53 1.70 1.61 1.71 1.87 1.56 1.47 1.59 1.71 1.89 1.72 1.53 1.26 1.15 1.14 1.11 0.91 0.67 0.48 0.37 0.31 0.27 0.23 0.24 0.28 0.30 0.32 0.31 0.34 0.35 0.36 0.40 0.44 0.51 0.55 0.55 0.53 0.56
1.48 1.51 1.50 1.48 1.90 2.03 1.96 1.99 1.62 1.73 2.03 1.62 1.36 1.50 1.40 1.43 1.26 1.10 0.89 0.81 0.97 0.67 0.46 0.34 0.25 0.19 0.13 0.14 0.13 0.18 0.25 0.30 0.33 0.37 0.40 0.46 0.49 0.49 0.47 0.40 0.42 0.45 0.47 0.49
1.12 1.12 1.22 1.05 0.91 1.37 1.52 1.34 0.98 1.06 1.07 1.05 0.92 0.89 0.80 0.89 0.81 0.68 0.62 0.56 0.54 0.33 0.23 0.17 0.13 0.11 0.10 0.11 0.15 0.22 0.26 0.32 0.35 0.40 0.47 0.48 0.49 0.45 0.42 0.37 0.39 0.39 0.39 0.41
0.87 0.73 0.74 0.65 0.51 0.72 0.79 0.69 0.68 0.53 0.56 0.59 0.60 0.60 0.53 0.54 0.52 0.45 0.47 0.37 0.17 0.13 0.10 0.14 0.16 0.16 0.15 0.19 0.24 0.30 0.34 0.40 0.45 0.48 0.50 0.51 0.52 0.49 0.45 0.42 0.41 0.44 0.50 0.55
0.61 0.58 0.63 0.59 0.46 0.36 0.46 0.64 0.49 0.47 0.43 0.47 0.49 0.50 0.44 0.42 0.40 0.22 0.18 0.16 0.15 0.14 0.16 0.23 0.23 0.20 0.22 0.35 0.39 0.41 0.43 0.48 0.50 0.54 0.54 0.54 0.58 0.59 0.62 0.62 0.59 0.63 0.67 0.65
0.67 0.67 0.66 0.62 0.51 0.58 0.54 0.55 0.42 0.43 0.39 0.39 0.36 0.30 0.25 0.23 0.35 0.31 0.20 0.22 0.20 0.24 0.32 0.34 0.31 0.31 0.39 0.46 0.51 0.52 0.54 0.55 0.54 0.57 0.59 0.64 0.66 0.68 0.68 0.66 0.63 0.62 0.63 0.63
0.72 0.66 0.67 0.63 0.58 0.54 0.50 0.45 0.44 0.44 0.35 0.33 0.39 0.35 0.34 0.30 0.29 0.27 0.28 0.28 0.28 0.31 0.38 0.42 0.39 0.41 0.49 0.50 0.53 0.51 0.52 0.53 0.52 0.55 0.57 0.61 0.64 0.63 0.62 0.63 0.63 0.61 0.63 0.61
0.65 0.59 0.51 0.46 0.48 0.44 0.39 0.36 0.37 0.38 0.35 0.37 0.52 0.48 0.38 0.35 0.31 0.30 0.34 0.39 0.40 0.43 0.46 0.47 0.47 0.45 0.49 0.52 0.49 0.48 0.52 0.54 0.53 0.56 0.58 0.61 0.61 0.64 0.68 0.68 0.65 0.62 0.59 0.61

GFSNGP_prec_precacc_279.txt.gz
Total_Precipitation_Accumulation
0.14 0.17 0.66 0.51 0.18 0.15 0.29 0.22 0.50 0.76 0.69 1.02 1.77 1.97 1.82 1.76 1.25 1.11 1.00 0.92 0.99 1.52 1.16 1.05 1.16 1.10 1.04 1.28 1.41 1.68 1.61 1.48 1.51 1.76 1.84 1.37 1.25 1.28 1.66 1.63 1.66 1.86 1.89 1.95
0.17 0.09 0.42 0.45 0.15 0.11 0.14 0.17 0.33 0.49 0.45 1.04 0.82 0.56 0.53 0.64 0.96 0.84 0.96 0.85 0.70 0.97 1.45 0.86 0.70 0.78 0.81 1.04 1.24 1.20 1.31 1.27 1.26 1.17 1.18 1.20 1.16 1.02 1.09 1.34 1.45 1.54 1.75 2.15
1.02 0.20 0.83 1.38 0.77 0.50 0.36 0.45 0.31 0.43 0.62 0.80 0.43 0.19 0.13 0.11 0.20 0.39 0.47 0.56 0.47 0.49 1.07 1.08 0.81 0.79 0.72 0.90 1.06 1.02 1.14 1.21 1.07 0.96 0.93 0.95 0.93 0.90 0.86 1.00 1.15 1.39 1.57 1.59
1.77 1.22 2.77 1.33 0.65 0.68 0.89 0.67 0.78 0.73 0.76 0.54 0.29 0.22 0.16 0.18 0.15 0.15 0.18 0.29 0.49 0.58 0.81 1.06 0.75 0.63 0.62 0.70 0.97 0.96 0.91 0.97 1.00 0.89 0.82 0.87 0.80 0.79 0.77 0.77 0.76 0.68 0.67 0.68
3.02 2.38 1.50 0.46 0.25 0.30 0.52 0.46 0.35 0.52 0.51 0.27 0.16 0.20 0.21 0.16 0.21 0.21 0.26 0.36 0.44 0.44 0.48 1.05 1.03 0.88 0.92 0.83 0.95 1.07 0.96 0.98 0.96 0.89 0.77 0.85 0.93 1.03 1.01 0.93 0.83 0.70 0.56 0.48
3.70 3.15 1.52 0.54 0.32 0.14 0.39 0.79 0.43 0.36 0.36 0.26 0.21 0.42 0.65 0.57 0.49 0.38 0.41 0.26 0.19 0.16 0.32 0.76 1.25 1.17 1.49 1.29 1.22 1.18 1.04 1.02 1.02 1.00 1.06 1.10 1.11 1.18 1.19 1.06 1.03 1.10 1.02 0.81
2.16 3.03 1.59 0.20 0.23 0.34 1.30 1.40 0.73 0.49 0.51 0.47 0.59 0.63 0.65 0.52 0.31 0.28 0.24 0.27 0.24 0.22 0.33 0.51 1.05 1.40 1.61 1.85 1.65 1.54 1.41 1.24 1.40 1.27 1.09 0.96 0.93 0.85 1.04 1.08 1.10 1.22 1.41 1.44
1.62 2.37 1.79 0.24 0.34 0.98 1.67 1.00 0.85 0.75 0.52 0.49 0.70 0.78 0.60 0.54 0.41 0.43 0.48 0.50 0.34 0.25 0.31 0.49 0.64 1.12 1.45 1.80 1.91 1.84 1.99 1.92 1.72 2.01 1.83 1.52 1.22 1.02 0.88 1.23 1.66 1.75 1.68 1.67
1.28 1.23 0.68 0.50 0.57 0.45 0.27 0.23 0.23 0.51 0.68 0.70 0.55 0.66 0.86 1.34 0.91 0.58 0.68 0.72 0.58 0.46 0.41 0.46 0.60 0.87 1.24 1.53 1.49 1.66 1.83 2.20 2.25 2.10 2.16 1.87 1.66 1.47 1.37 1.22 1.27 1.51 1.75 1.92
1.57 0.91 0.40 0.40 0.39 0.22 0.26 0.35 0.27 0.37 0.41 0.57 0.57 0.42 0.49 0.58 0.60 0.73 1.09 0.99 0.76 0.65 0.69 0.78 0.83 1.05 1.53 1.68 1.64 1.64 1.65 1.53 1.52 1.70 1.84 1.96 2.05 2.02 1.91 1.94 1.93 2.08 2.26 2.51
1.82 1.18 0.76 0.50 0.49 0.58 0.48 0.46 0.45 0.42 0.45 0.47 0.60 0.47 0.49 0.58 0.41 0.45 0.65 0.75 0.97 0.98 1.10 1.23 1.47 1.69 1.82 1.60 1.22 1.03 0.83 0.69 0.69 0.91 1.17 1.46 1.91 2.49 2.55 2.82 2.83 2.73 2.84 2.79
2.34 1.69 1.71 1.24 0.86 0.82 0.86 0.52 0.27 0.31 0.43 0.66 0.67 0.54 0.33 0.33 0.33 0.31 0.45 0.68 0.86 1.02 1.14 1.32 1.31 1.34 1.25 1.23 0.95 0.60 0.52 0.51 0.61 0.61 0.78 1.06 1.44 2.06 2.86 3.26 3.28 3.25 3.30 3.17
1.41 1.67 1.59 1.47 0.95 0.72 0.66 0.72 0.59 0.51 0.53 0.73 0.75 0.42 0.26 0.29 0.33 0.42 0.42 0.53 0.75 1.06 1.21 1.45 1.64 1.80 1.79 1.42 1.46 1.39 0.89 0.83 0.95 1.08 1.16 1.38 1.61 1.85 2.44 2.97 3.11 3.27 3.28 3.24
0.81 1.06 1.13 1.05 0.79 0.41 0.45 0.54 0.56 0.55 0.46 0.52 0.71 0.77 0.60 0.50 0.51 0.50 0.62 0.64 0.67 0.80 1.14 1.23 1.07 1.14 1.31 1.36 1.51 1.72 1.85 1.77 1.74 1.95 2.04 2.07 2.07 2.16 2.18 2.18 2.11 2.12 2.11 1.96
0.48 0.57 0.81 0.80 1.06 0.75 0.52 0.66 0.80 0.58 0.42 0.50 0.58 0.84 0.82 0.90 0.85 0.96 1.10 1.02 0.87 0.80 0.87 0.84 0.78 0.86 0.83 0.82 0.90 1.07 1.31 1.51 1.41 1.37 1.28 1.22 1.15 1.18 1.18 1.19 1.17 1.19 1.11 1.03
0.71 0.63 0.69 0.84 0.98 1.01 0.69 0.63 0.72 0.83 0.75 0.56 0.46 0.66 0.77 0.79 0.89 1.00 1.00 0.81 0.67 0.78 0.69 0.67 0.80 0.99 0.96 0.93 0.87 0.91 0.97 1.10 1.02 0.99 1.06 0.97 0.82 0.73 0.70 0.68 0.71 0.66 0.63 0.70
1.25 1.17 0.91 0.84 0.70 0.81 0.67 0.49 0.56 0.70 0.58 0.50 0.67 0.64 0.77 0.97 0.88 0.76 0.84 0.80 0.66 0.69 0.79 0.87 1.23 1.24 1.10 1.05 1.00 1.03 0.95 0.91 0.83 0.69 0.65 0.62 0.59 0.57 0.55 0.62 0.63 0.59 0.52 0.54
1.54 1.72 1.17 0.80 0.60 0.68 0.66 0.58 0.62 0.78 0.87 0.84 0.85 0.97 1.12 1.04 1.04 1.13 1.07 0.78 0.73 0.87 1.04 1.18 1.10 1.01 0.92 0.91 0.78 0.72 0.65 0.60 0.54 0.53 0.51 0.48 0.43 0.39 0.44 0.47 0.47 0.50 0.52 0.64
1.62 1.90 1.45 0.97 0.82 0.77 0.77 0.88 0.89 0.97 1.15 1.23 1.25 1.51 1.53 1.58 1.57 1.64 1.41 1.16 1.14 1.07 1.37 1.09 0.88 0.68 0.62 0.59 0.43 0.37 0.40 0.41 0.39 0.39 0.39 0.37 0.39 0.38 0.45 0.47 0.49 0.52 0.52 0.55
1.36 1.71 1.51 1.54 1.59 1.36 1.54 1.71 1.61 1.71 1.88 1.57 1.47 1.59 1.72 1.91 1.73 1.53 1.26 1.15 1.14 1.11 0.91 0.67 0.48 0.37 0.31 0.27 0.23 0.24 0.28 0.30 0.32 0.31 0.34 0.35 0.36 0.40 0.44 0.51 0.55 0.55 0.53 0.56
1.48 1.51 1.50 1.48 1.90 2.03 1.97 2.00 1.63 1.73 2.04 1.63 1.36 1.51 1.40 1.43 1.26 1.10 0.89 0.81 0.97 0.67 0.46 0.34 0.25 0.19 0.13 0.14 0.13 0.18 0.25 0.30 0.33 0.37 0.40 0.46 0.49 0.49 0.47 0.40 0.42 0.45 0.47 0.49
1.12 1.12 1.22 1.05 0.91 1.38 1.53 1.34 0.99 1.07 1.08 1.05 0.92 0.89 0.80 0.89 0.81 0.68 0.62 0.56 0.54 0.33 0.23 0.17 0.13 0.11 0.10 0.11 0.15 0.22 0.26 0.32 0.35 0.40 0.47 0.48 0.49 0.45 0.42 0.37 0.39 0.39 0.39 0.41
0.87 0.73 0.74 0.65 0.51 0.72 0.79 0.69 0.68 0.53 0.56 0.59 0.60 0.60 0.53 0.54 0.52 0.45 0.47 0.37 0.17 0.13 0.10 0.14 0.16 0.16 0.15 0.19 0.24 0.30 0.34 0.40 0.45 0.48 0.50 0.51 0.52 0.49 0.45 0.42 0.41 0.44 0.50 0.55
0.61 0.58 0.63 0.59 0.46 0.36 0.46 0.64 0.49 0.47 0.43 0.47 0.49 0.50 0.44 0.42 0.40 0.22 0.18 0.16 0.15 0.14 0.16 0.23 0.23 0.20 0.22 0.35 0.39 0.41 0.43 0.48 0.50 0.54 0.54 0.54 0.58 0.59 0.62 0.62 0.59 0.63 0.67 0.65
0.67 0.67 0.66 0.62 0.51 0.58 0.54 0.55 0.42 0.43 0.39 0.39 0.36 0.30 0.25 0.23 0.35 0.31 0.20 0.22 0.20 0.24 0.32 0.34 0.31 0.31 0.39 0.46 0.51 0.52 0.54 0.55 0.54 0.57 0.59 0.64 0.66 0.68 0.68 0.66 0.63 0.62 0.63 0.63
0.72 0.66 0.67 0.63 0.58 0.54 0.50 0.45 0.44 0.44 0.35 0.33 0.39 0.35 0.34 0.30 0.29 0.27 0.28 0.28 0.28 0.31 0.38 0.42 0.39 0.41 0.49 0.50 0.53 0.51 0.52 0.53 0.52 0.55 0.57 0.61 0.64 0.63 0.62 0.63 0.63 0.61 0.63 0.61
0.65 0.59 0.51 0.46 0.48 0.44 0.39 0.36 0.37 0.38 0.35 0.37 0.52 0.48 0.38 0.35 0.31 0.30 0.34 0.39 0.40 0.43 0.46 0.47 0.47 0.45 0.49 0.52 0.49 0.48 0.52 0.54 0.53 0.56 0.58 0.61 0.61 0.64 0.68 0.68 0.65 0.62 0.59 0.61

GFSNGP_prec_precacc_285.txt.gz
Total_Precipitation_Accumulation
0.14 0.17 0.66 0.51 0.18 0.15 0.29 0.22 0.50 0.76 0.69 1.02 1.77 1.97 1.82 1.76 1.25 1.11 1.00 0.92 0.99 1.52 1.16 1.05 1.17 1.11 1.04 1.28 1.42 1.69 1.62 1.51 1.56 1.84 1.94 1.48 1.31 1.33 1.71 1.67 1.72 1.93 1.99 2.09
0.17 0.09 0.42 0.45 0.15 0.11 0.14 0.17 0.33 0.49 0.45 1.04 0.82 0.56 0.53 0.64 0.96 0.84 0.96 0.86 0.72 0.97 1.45 0.86 0.71 0.78 0.81 1.04 1.24 1.21 1.33 1.31 1.33 1.26 1.29 1.30 1.29 1.14 1.19 1.41 1.56 1.70 1.96 2.40
1.02 0.20 0.83 1.38 0.77 0.50 0.36 0.45 0.31 0.43 0.62 0.80 0.43 0.19 0.13 0.11 0.20 0.39 0.50 0.59 0.48 0.49 1.08 1.08 0.82 0.79 0.72 0.91 1.06 1.02 1.16 1.26 1.14 1.05 1.02 1.08 1.03 0.96 0.94 1.10 1.26 1.50 1.70 1.73
1.77 1.22 2.77 1.33 0.65 0.68 0.89 0.67 0.78 0.73 0.76 0.54 0.29 0.22 0.16 0.18 0.16 0.17 0.21 0.34 0.54 0.63 0.91 1.11 0.75 0.63 0.62 0.70 0.97 0.96 0.94 1.02 1.08 0.97 0.92 0.96 0.88 0.87 0.84 0.86 0.89 0.83 0.82 0.84
3.02 2.38 1.50 0.46 0.25 0.30 0.52 0.46 0.35 0.52 0.51 0.27 0.16 0.20 0.21 0.17 0.26 0.26 0.33 0.43 0.51 0.54 0.65 1.08 1.03 0.88 0.92 0.83 0.95 1.08 1.00 1.04 1.06 0.97 0.84 0.91 0.99 1.08 1.05 0.96 0.86 0.74 0.61 0.52
3.70 3.16 1.52 0.54 0.32 0.14 0.39 0.79 0.43 0.36 0.36 0.26 0.22 0.47 0.67 0.59 0.56 0.47 0.50 0.35 0.28 0.28 0.40 0.77 1.25 1.17 1.49 1.30 1.23 1.21 1.09 1.08 1.08 1.05 1.11 1.14 1.14 1.19 1.20 1.07 1.04 1.10 1.02 0.81
2.16 3.05 1.59 0.20 0.23 0.34 1.30 1.40 0.73 0.50 0.52 0.47 0.60 0.67 0.68 0.54 0.33 0.30 0.26 0.37 0.41 0.38 0.40 0.51 1.05 1.40 1.61 1.86 1.68 1.59 1.46 1.28 1.44 1.31 1.11 0.97 0.94 0.85 1.04 1.08 1.10 1.22 1.42 1.44
1.62 2.37 1.79 0.24 0.34 0.99 1.68 1.01 0.85 0.75 0.52 0.50 0.72 0.80 0.62 0.55 0.42 0.49 0.70 0.74 0.65 0.39 0.32 0.49 0.64 1.12 1.46 1.82 1.95 1.87 2.01 1.95 1.75 2.03 1.83 1.52 1.22 1.02 0.88 1.23 1.66 1.75 1.68 1.67
1.28 1.23 0.68 0.50 0.57 0.45 0.27 0.23 0.23 0.51 0.69 0.72 0.59 0.70 0.88 1.36 0.97 0.77 0.84 0.88 0.68 0.48 0.41 0.46 0.60 0.88 1.26 1.57 1.51 1.68 1.85 2.21 2.25 2.10 2.16 1.87 1.66 1.47 1.37 1.22 1.27 1.51 1.75 1.92
1.57 0.91 0.40 0.40 0.39 0.22 0.26 0.35 0.27 0.38 0.45 0.59 0.60 0.45 0.53 0.68 0.77 0.89 1.39 1.14 0.81 0.65 0.69 0.79 0.84 1.07 1.55 1.71 1.65 1.65 1.66 1.54 1.52 1.70 1.84 1.96 2.05 2.02 1.91 1.94 1.93 2.08 2.27 2.51
1.82 1.18 0.76 0.50 0.49 0.58 0.48 0.46 0.46 0.45 0.46 0.48 0.62 0.51 0.52 0.69 0.53 0.55 0.71 0.79 0.98 0.99 1.10 1.25 1.49 1.72 1.85 1.61 1.23 1.03 0.83 0.69 0.69 0.91 1.17 1.46 1.91 2.49 2.55 2.82 2.83 2.73 2.84 2.79
2.35 1.69 1.72 1.24 0.86 0.82 0.86 0.53 0.28 0.31 0.44 0.66 0.71 0.59 0.40 0.44 0.44 0.45 0.53 0.69 0.87 1.03 1.15 1.35 1.33 1.36 1.26 1.23 0.95 0.60 0.52 0.51 0.61 0.61 0.78 1.06 1.44 2.06 2.86 3.26 3.28 3.25 3.30 3.17
1.41 1.67 1.59 1.47 0.95 0.72 0.66 0.73 0.59 0.51 0.54 0.74 0.78 0.50 0.32 0.35 0.48 0.47 0.44 0.54 0.76 1.08 1.22 1.47 1.65 1.80 1.79 1.42 1.46 1.39 0.89 0.83 0.95 1.08 1.16 1.38 1.61 1.85 2.44 2.97 3.11 3.27 3.28 3.24
0.81 1.06 1.13 1.05 0.79 0.41 0.45 0.54 0.56 0.55 0.46 0.53 0.74 0.79 0.62 0.56 0.57 0.53 0.65 0.67 0.69 0.82 1.15 1.23 1.07 1.14 1.31 1.36 1.51 1.72 1.85 1.77 1.74 1.95 2.04 2.07 2.07 2.16 2.18 2.18 2.11 2.12 2.11 1.96
0.48 0.57 0.81 0.80 1.06 0.75 0.52 0.66 0.81 0.58 0.43 0.52 0.60 0.86 0.83 0.93 0.88 0.99 1.13 1.04 0.87 0.80 0.87 0.84 0.78 0.86 0.83 0.82 0.90 1.07 1.31 1.51 1.41 1.37 1.28 1.22 1.15 1.18 1.18 1.19 1.17 1.19 1.11 1.03
0.71 0.63 0.69 0.84 0.98 1.01 0.69 0.63 0.73 0.84 0.76 0.58 0.48 0.69 0.80 0.81 0.91 1.03 1.02 0.82 0.67 0.78 0.69 0.67 0.80 0.99 0.97 0.93 0.87 0.92 0.98 1.11 1.02 0.99 1.06 0.97 0.82 0.73 0.70 0.68 0.71 0.66 0.63 0.70
1.25 1.18 0.91 0.84 0.71 0.81 0.67 0.50 0.56 0.72 0.60 0.52 0.70 0.67 0.78 0.97 0.89 0.77 0.85 0.81 0.66 0.69 0.79 0.87 1.23 1.24 1.10 1.05 1.01 1.04 0.95 0.91 0.83 0.69 0.65 0.62 0.59 0.57 0.55 0.62 0.63 0.59 0.52 0.54
1.54 1.72 1.18 0.81 0.61 0.69 0.66 0.59 0.64 0.79 0.90 0.86 0.86 0.98 1.13 1.05 1.05 1.13 1.08 0.78 0.74 0.87 1.04 1.18 1.10 1.01 0.92 0.91 0.78 0.72 0.65 0.60 0.54 0.53 0.51 0.48 0.43 0.39 0.44 0.47 0.47 0.50 0.52 0.64
1.62 1.90 1.45 0.97 0.82 0.78 0.77 0.89 0.91 0.99 1.17 1.24 1.25 1.52 1.53 1.59 1.57 1.64 1.41 1.16 1.14 1.07 1.37 1.09 0.88 0.68 0.62 0.59 0.43 0.37 0.40 0.41 0.39 0.39 0.39 0.37 0.39 0.38 0.45 0.47 0.49 0.52 0.52 0.55
1.36 1.71 1.51 1.54 1.59 1.37 1.55 1.71 1.62 1.73 1.90 1.57 1.47 1.60 1.72 1.91 1.73 1.53 1.26 1.15 1.14 1.11 0.91 0.67 0.48 0.37 0.31 0.27 0.23 0.24 0.28 0.30 0.32 0.31 0.34 0.35 0.36 0.40 0.44 0.51 0.55 0.55 0.53 0.56
1.48 1.51 1.50 1.48 1.91 2.03 1.97 2.00 1.63 1.74 2.06 1.63 1.37 1.51 1.40 1.43 1.26 1.10 0.89 0.81 0.97 0.67 0.46 0.34 0.25 0.19 0.13 0.14 0.13 0.18 0.25 0.30 0.33 0.37 0.40 0.46 0.49 0.49 0.47 0.40 0.42 0.45 0.47 0.49
1.12 1.12 1.22 1.06 0.91 1.38 1.53 1.35 0.99 1.07 1.08 1.05 0.92 0.89 0.80 0.89 0.81 0.68 0.62 0.56 0.54 0.33 0.23 0.17 0.13 0.11 0.10 0.11 0.15 0.22 0.26 0.32 0.35 0.40 0.47 0.48 0.49 0.45 0.42 0.37 0.39 0.39 0.39 0.41
0.87 0.73 0.74 0.65 0.51 0.72 0.79 0.69 0.68 0.53 0.56 0.59 0.60 0.60 0.53 0.54 0.52 0.45 0.47 0.37 0.17 0.13 0.10 0.14 0.16 0.16 0.15 0.19 0.24 0.30 0.34 0.40 0.45 0.48 0.50 0.51 0.52 0.49 0.45 0.42 0.41 0.44 0.50 0.55
0.61 0.58 0.63 0.59 0.46 0.36 0.46 0.64 0.49 0.47 0.43 0.47 0.49 0.50 0.44 0.42 0.40 0.22 0.18 0.16 0.15 0.14 0.16 0.23 0.23 0.20 0.22 0.35 0.39 0.41 0.43 0.48 0.50 0.54 0.54 0.54 0.58 0.59 0.62 0.62 0.59 0.63 0.67 0.65
0.67 0.67 0.66 0.62 0.51 0.58 0.54 0.55 0.42 0.43 0.39 0.39 0.36 0.30 0.25 0.23 0.35 0.31 0.20 0.22 0.20 0.24 0.32 0.34 0.31 0.31 0.39 0.46 0.51 0.52 0.54 0.55 0.54 0.57 0.59 0.64 0.66 0.68 0.68 0.66 0.63 0.62 0.63 0.63
0.72 0.66 0.67 0.63 0.58 0.54 0.50 0.45 0.44 0.44 0.35 0.33 0.39 0.35 0.34 0.30 0.29 0.27 0.28 0.28 0.28 0.31 0.38 0.42 0.39 0.41 0.49 0.50 0.53 0.51 0.52 0.53 0.52 0.55 0.57 0.61 0.64 0.63 0.62 0.63 0.63 0.61 0.63 0.61
0.65 0.59 0.51 0.46 0.48 0.44 0.39 0.36 0.37 0.38 0.35 0.37 0.52 0.48 0.38 0.35 0.31 0.30 0.34 0.39 0.40 0.43 0.46 0.47 0.47 0.45 0.49 0.52 0.49 0.48 0.52 0.54 0.53 0.56 0.58 0.61 0.61 0.64 0.68 0.68 0.65 0.62 0.59 0.61

GFSNGP_prec_precacc_291.txt.gz
Total_Precipitation_Accumulation
0.14 0.17 0.66 0.51 0.18 0.15 0.29 0.22 0.50 0.76 0.69 1.02 1.77 1.97 1.82 1.76 1.25 1.11 1.00 0.92 1.00 1.54 1.24 1.23 1.29 1.14 1.10 1.30 1.42 1.69 1.63 1.52 1.57 1.86 1.97 1.52 1.37 1.39 1.76 1.72 1.79 1.99 2.02 2.11
0.17 0.09 0.42 0.45 0.15 0.11 0.14 0.17 0.33 0.49 0.45 1.04 0.82 0.56 0.53 0.64 0.96 0.84 0.96 0.87 0.73 1.03 1.58 0.95 0.77 0.92 0.88 1.04 1.25 1.21 1.33 1.32 1.34 1.27 1.31 1.34 1.33 1.17 1.21 1.43 1.58 1.73 1.98 2.41
1.02 0.20 0.83 1.38 0.77 0.50 0.36 0.45 0.31 0.43 0.62 0.80 0.43 0.19 0.13 0.11 0.20 0.39 0.50 0.59 0.50 0.57 1.25 1.21 0.95 0.89 0.74 0.91 1.07 1.02 1.17 1.27 1.15 1.06 1.04 1.11 1.07 0.98 0.94 1.10 1.26 1.51 1.70 1.73
1.77 1.22 2.77 1.33 0.65 0.68 0.89 0.67 0.78 0.73 0.76 0.54 0.29 0.22 0.16 0.18 0.16 0.17 0.22 0.35 0.58 0.72 1.08 1.21 0.84 0.69 0.62 0.70 0.97 0.97 0.95 1.03 1.09 0.99 0.93 0.98 0.89 0.88 0.85 0.86 0.89 0.83 0.82 0.84
3.02 2.38 1.50 0.46 0.25 0.30 0.52 0.46 0.35 0.52 0.51 0.27 0.16 0.20 0.21 0.17 0.26 0.27 0.33 0.44 0.53 0.63 0.74 1.16 1.15 0.91 0.92 0.83 0.95 1.08 1.00 1.05 1.07 0.98 0.85 0.92 0.99 1.08 1.05 0.96 0.86 0.74 0.61 0.52
3.70 3.16 1.52 0.54 0.32 0.14 0.39 0.79 0.43 0.36 0.36 0.26 0.22 0.47 0.67 0.59 0.57 0.48 0.51 0.36 0.34 0.37 0.54 0.95 1.29 1.17 1.49 1.30 1.23 1.22 1.10 1.09 1.09 1.05 1.11 1.14 1.14 1.19 1.20 1.07 1.04 1.10 1.02 0.81
2.16 3.05 1.59 0.20 0.23 0.34 1.30 1.40 0.73 0.50 0.52 0.47 0.61 0.67 0.69 0.55 0.34 0.30 0.28 0.49 0.55 0.59 0.55 0.54 1.05 1.40 1.61 1.86 1.69 1.59 1.46 1.28 1.44 1.31 1.11 0.97 0.94 0.85 1.04 1.08 1.10 1.22 1.42 1.44
1.62 2.37 1.79 0.24 0.34 0.99 1.68 1.01 0.85 0.75 0.52 0.50 0.72 0.80 0.62 0.57 0.43 0.50 0.75 0.80 0.75 0.52 0.34 0.50 0.64 1.12 1.46 1.83 1.95 1.87 2.01 1.95 1.75 2.03 1.83 1.52 1.22 1.02 0.88 1.23 1.66 1.75 1.68 1.67
1.28 1.23 0.68 0.50 0.57 0.45 0.27 0.23 0.23 0.51 0.69 0.72 0.59 0.70 0.90 1.38 0.98 0.78 0.87 0.94 0.74 0.50 0.42 0.46 0.60 0.88 1.26 1.57 1.51 1.68 1.85 2.21 2.25 2.10 2.16 1.87 1.66 1.47 1.37 1.22 1.27 1.51 1.75 1.92
1.57 0.91 0.40 0.40 0.39 0.22 0.26 0.35 0.27 0.38 0.45 0.60 0.61 0.46 0.54 0.70 0.77 0.90 1.41 1.16 0.82 0.65 0.70 0.81 0.85 1.07 1.55 1.71 1.65 1.65 1.66 1.54 1.52 1.70 1.84 1.96 2.05 2.02 1.91 1.94 1.93 2.08 2.27 2.51
1.82 1.18 0.76 0.50 0.49 0.58 0.48 0.46 0.46 0.45 0.46 0.49 0.63 0.51 0.53 0.70 0.54 0.57 0.72 0.80 0.99 0.99 1.11 1.27 1.49 1.72 1.85 1.61 1.23 1.03 0.83 0.69 0.69 0.91 1.17 1.46 1.91 2.49 2.55 2.82 2.83 2.73 2.84 2.79
2.35 1.69 1.72 1.24 0.86 0.82 0.86 0.53 0.28 0.31 0.44 0.66 0.71 0.59 0.40 0.44 0.46 0.46 0.53 0.70 0.87 1.03 1.15 1.35 1.33 1.36 1.26 1.23 0.95 0.60 0.52 0.51 0.61 0.61 0.78 1.06 1.44 2.06 2.86 3.26 3.28 3.25 3.30 3.17
1.41 1.67 1.59 1.47 0.95 0.72 0.66 0.73 0.59 0.51 0.54 0.74 0.78 0.51 0.32 0.35 0.49 0.48 0.44 0.54 0.77 1.08 1.22 1.47 1.65 1.80 1.79 1.42 1.46 1.39 0.89 0.83 0.95 1.08 1.16 1.38 1.61 1.85 2.44 2.97 3.11 3.27 3.28 3.24
0.81 1.06 1.13 1.05 0.79 0.41 0.45 0.54 0.56 0.55 0.46 0.53 0.74 0.80 0.62 0.56 0.57 0.53 0.65 0.67 0.69 0.82 1.15 1.23 1.07 1.14 1.31 1.36 1.51 1.72 1.85 1.77 1.74 1.95 2.04 2.07 2.07 2.16 2.18 2.18 2.11 2.12 2.11 1.96
0.48 0.57 0.81 0.80 1.06 0.75 0.52 0.66 0.81 0.59 0.44 0.53 0.60 0.86 0.84 0.93 0.88 1.00 1.13 1.04 0.87 0.80 0.87 0.84 0.78 0.86 0.83 0.82 0.90 1.07 1.31 1.51 1.41 1.37 1.28 1.22 1.15 1.18 1.18 1.19 1.17 1.19 1.11 1.03
0.71 0.63 0.69 0.84 0.98 1.01 0.69 0.63 0.73 0.85 0.77 0.59 0.49 0.70 0.80 0.81 0.92 1.03 1.02 0.82 0.67 0.78 0.69 0.67 0.80 0.99 0.97 0.93 0.87 0.92 0.98 1.11 1.02 0.99 1.06 0.97 0.82 0.73 0.70 0.68 0.71 0.66 0.63 0.70
1.25 1.18 0.91 0.84 0.71 0.81 0.67 0.50 0.57 0.72 0.61 0.53 0.71 0.67 0.78 0.97 0.89 0.77 0.85 0.81 0.66 0.69 0.79 0.87 1.23 1.24 1.10 1.05 1.01 1.04 0.95 0.91 0.83 0.69 0.65 0.62 0.59 0.57 0.55 0.62 0.63 0.59 0.52 0.54
1.54 1.72 1.18 0.81 0.61 0.69 0.67 0.60 0.64 0.79 0.90 0.87 0.87 0.98 1.13 1.05 1.05 1.13 1.08 0.78 0.74 0.87 1.04 1.18 1.10 1.01 0.92 0.91 0.78 0.72 0.65 0.60 0.54 0.53 0.51 0.48 0.43 0.39 0.44 0.47 0.47 0.50 0.52 0.64
1.62 1.90 1.45 0.97 0.82 0.78 0.77 0.89 0.91 0.99 1.17 1.24 1.25 1.52 1.53 1.59 1.57 1.64 1.41 1.16 1.14 1.07 1.37 1.09 0.88 0.68 0.62 0.59 0.43 0.37 0.40 0.41 0.39 0.39 0.39 0.37 0.39 0.38 0.45 0.47 0.49 0.52 0.52 0.55
1.36 1.71 1.51 1.54 1.59 1.37 1.55 1.71 1.62 1.73 1.90 1.57 1.47 1.60 1.72 1.91 1.73 1.53 1.26 1.15 1.14 1.11 0.91 0.67 0.48 0.37 0.31 0.27 0.23 0.24 0.28 0.30 0.32 0.31 0.34 0.35 0.36 0.40 0.44 0.51 0.55 0.55 0.53 0.56
1.48 1.51 1.50 1.48 1.91 2.03 1.97 2.00 1.63 1.74 2.06 1.63 1.37 1.51 1.40 1.43 1.26 1.10 0.89 0.81 0.97 0.67 0.46 0.34 0.25 0.19 0.13 0.14 0.13 0.18 0.25 0.30 0.33 0.37 0.40 0.46 0.49 0.49 0.47 0.40 0.42 0.45 0.47 0.49
1.12 1.12 1.22 1.06 0.91 1.39 1.53 1.35 0.99 1.07 1.08 1.05 0.92 0.89 0.80 0.89 0.81 0.68 0.62 0.56 0.54 0.33 0.23 0.17 0.13 0.11 0.10 0.11 0.15 0.22 0.26 0.32 0.35 0.40 0.47 0.48 0.49 0.45 0.42 0.37 0.39 0.39 0.39 0.41
0.87 0.73 0.74 0.65 0.51 0.72 0.79 0.69 0.68 0.53 0.56 0.59 0.60 0.60 0.53 0.54 0.52 0.45 0.47 0.37 0.17 0.13 0.10 0.14 0.16 0.16 0.15 0.19 0.24 0.30 0.34 0.40 0.45 0.48 0.50 0.51 0.52 0.49 0.45 0.42 0.41 0.44 0.50 0.55
0.61 0.58 0.63 0.59 0.46 0.36 0.47 0.64 0.49 0.47 0.43 0.47 0.49 0.50 0.44 0.42 0.40 0.22 0.18 0.16 0.15 0.14 0.16 0.23 0.23 0.20 0.22 0.35 0.39 0.41 0.43 0.48 0.50 0.54 0.54 0.54 0.58 0.59 0.62 0.62 0.59 0.63 0.67 0.65
0.67 0.67 0.66 0.62 0.51 0.58 0.54 0.55 0.42 0.43 0.39 0.39 0.36 0.30 0.25 0.23 0.35 0.31 0.20 0.22 0.20 0.24 0.32 0.34 0.31 0.31 0.39 0.46 0.51 0.52 0.54 0.55 0.54 0.57 0.59 0.64 0.66 0.68 0.68 0.66 0.63 0.62 0.63 0.63
0.72 0.66 0.67 0.63 0.58 0.54 0.50 0.45 0.44 0.44 0.35 0.33 0.39 0.35 0.34 0.30 0.29 0.27 0.28 0.28 0.28 0.31 0.38 0.42 0.39 0.41 0.49 0.50 0.53 0.51 0.52 0.53 0.52 0.55 0.57 0.61 0.64 0.63 0.62 0.63 0.63 0.61 0.63 0.61
0.65 0.59 0.51 0.46 0.48 0.44 0.39 0.36 0.37 0.38 0.35 0.37 0.52 0.48 0.38 0.35 0.31 0.30 0.34 0.39 0.40 0.43 0.46 0.47 0.47 0.45 0.49 0.52 0.49 0.48 0.52 0.54 0.53 0.56 0.58 0.61 0.61 0.64 0.68 0.68 0.65 0.62 0.59 0.61